This is the latest recevied weather packets stored in our database for station/object WL7CLI. If no packets are shown the sender has not sent any weather packets the latest 10 day(s).
| Time | Temp. | Humidity | Pressure | Rain* | Wind** | Luminosity | Snow |
|---|---|---|---|---|---|---|---|
| 1777759134 | 18.89° C | 30% | 1017.3 hPa | 0 mm | - | - | - |
| 1777759103 | 18.89° C | 30% | 1016.9 hPa | 0 mm | - | - | - |
| 1777758971 | 18.89° C | 28% | 1017.3 hPa | 0 mm | - | - | - |
| 1777757934 | 18.33° C | 30% | 1017.5 hPa | 0 mm | - | - | - |
| 1777757774 | 18.33° C | 33% | 1017.6 hPa | 0 mm | - | - | - |
| 1777757304 | 18.33° C | 30% | 1017.3 hPa | 0 mm | - | - | - |
| 1777756733 | 17.78° C | 31% | 1017.9 hPa | 0 mm | - | - | - |
| 1777756572 | 17.78° C | 36% | 1017.9 hPa | 0 mm | - | - | - |
| 1777755534 | 17.22° C | 31% | 1018.1 hPa | 0 mm | - | - | - |
| 1777755504 | 17.22° C | 31% | 1017.7 hPa | 0 mm | - | - | - |
| 1777755373 | 17.78° C | 30% | 1018.1 hPa | 0 mm | - | - | - |
| 1777754333 | 17.78° C | 31% | 1018.5 hPa | 0 mm | - | - | - |
| 1777754172 | 17.78° C | 34% | 1018.5 hPa | 0 mm | - | - | - |
| 1777753704 | 17.78° C | 34% | 1018.4 hPa | 0 mm | - | - | - |
| 1777753133 | 17.22° C | 32% | 1018.9 hPa | 0 mm | - | - | - |
| 1777752972 | 17.22° C | 35% | 1018.8 hPa | 0 mm | - | - | - |
| 1777751933 | 16.67° C | 31% | 1019.2 hPa | 0 mm | - | - | - |
| 1777751903 | 16.67° C | 31% | 1018.8 hPa | 0 mm | - | - | - |
| 1777751773 | 16.67° C | 35% | 1019.3 hPa | 0 mm | - | - | - |
| 1777750734 | 16.67° C | 32% | 1019.4 hPa | 0 mm | - | - | - |
| 1777750571 | 16.67° C | 32% | 1019.5 hPa | 0 mm | - | - | - |
| 1777750104 | 16.67° C | 34% | 1019.2 hPa | 0 mm | - | - | - |
| 1777749535 | 16.11° C | 34% | 1019.8 hPa | 0 mm | - | - | - |
| 1777749372 | 16.11° C | 35% | 1019.8 hPa | 0 mm | - | - | - |
| 1777748333 | 16.11° C | 31% | 1020.1 hPa | 0 mm | - | - | - |
* Rain latest hour (hover to see other rain measurements)
** Current wind speed in m/s (hover to see current wind gust speed)